346P/Catalina (2017)

Japanese version
Home page
Updated on May 22, 2017

---------------------------------------------------------------------

* Profile

Designation 346P/2016 R1
Recovery Date September 1, 2016
Magnitude 20.0 mag
Recoverer K. Sarneczky and P. Szekely (Piszkesteto Station of Konkoly Observatory)

* Pictures

* Orbital Elements

Epoch 2017 Feb. 16.0 TT = JDT 2457800.5
T 2017 Feb. 15.50815 TT                                 MPCW
q   2.2208862            (2000.0)            P               Q
n   0.10407772     Peri.  335.89995     +0.17132226     -0.91366666
a   4.4760769      Node   102.51469     +0.95410710     +0.06059269
e   0.5038320      Incl.   22.18295     +0.24561824     +0.40192258
P   9.47
From 482 observations 2007 Oct. 6-2017 Apr. 21, mean residual 0".7.
     Nongravitational parameters A1 = +4.80, A2 = +0.6961.

* Finding Charts

* Magnitudes Graph

        m1 = 9.5 + 5 log d + 18.0 log r(t - 100)

---------------------------------------------------------------------

The orbital elements are published on M.P.E.C. 2017-J52.
The charts are made with StellaNavigator Ver.8 (AstroArts).
The magnitudes graphs are made with Comet for Windows.

---------------------------------------------------------------------

Copyright(C) Seiichi Yoshida (comet@aerith.net). All rights reserved.